Starlink 34132

operational
NORAD ID: 64086 Int'l Des: 2025-107 Owner: SPXS Country: US Constellation: starlink
LEOCIRCULAR

About Starlink 34132

Description loading...

Live Position

Loading 3D Globe...

Upcoming Passes

Altitude History

Altitude vs Time

uPlot chart will show altitude changes over time

Two-Line Element Set

1 64086U 25107Y 25346.69489129 .00051980 00000-0 18876-2 0 9992
2 64086 43.0026 333.0288 0001325 228.5518 131.5220 15.27537631 32784
Epoch: Dec 12, 2025 • Age: 40 hours

Current Status

Altitude 482.2 km
Velocity 7.63 km/s
Sub-Earth Point -1.73°S, 68.37°W
Launch Date May 21, 2025
Age 0.5 years
Type internet

Technical Details

Classification Payload
Mass 575.00 kg
Dry Mass 530.00 kg
Total Mass 575.00 kg
Length 0.30 m
Diameter 4.10 m
Span 29.00 m
Shape Box + pan
Manufacturer SPXS
Bus Type Starlink V2MO
Phase Status In Orbit
Owner/State SPXS/US

Large Constellations

Loading constellations...